Location: Gölcük
(37.0343°N, 29.7527°E)
Time: 14:45:56
(UTC+00:00)

Daily predictions for brighter satellites

Satellite Brightness Start Highest point End
(mag) Time Altitude Azimuth Time Altitude Azimuth Time Altitude Azimuth
ISS -2.3 17:18:27 10° S 17:20:53 19° SE 17:23:19 10° E
COSMOS 2455 3.7 17:21:26 10° NW 17:27:14 51° WSW 17:32:59 10° S
Okean 2 Rocket 4.5 17:25:17 10° SE 17:28:31 20° E 17:31:46 10° NE
Cosmos 1371 Rocket 4.1 17:24:30 10° S 17:29:40 60° ESE 17:34:55 10° NNE
Cosmos 2251 Rocket 4.0 17:24:37 10° N 17:29:47 47° ENE 17:34:54 10° SE
CZ-4C R/B 2.5 17:30:01 10° SSE 17:33:00 22° ESE 17:36:26 10° ENE
SL-4 R/B 4.1 17:31:16 10° NNW 17:33:41 16° NNE 17:36:07 10° ENE
DELTA 2 R/B (1) 4.5 17:30:35 10° SSW 17:35:15 28° SE 17:39:56 10° E
ATLAS 3B R/B 4.2 17:33:35 10° NNW 17:39:58 27° NE 17:46:03 10° E
SL-8 R/B 3.9 17:36:49 10° WNW 17:41:31 65° SW 17:45:55 11° SE
ERS-1 Rocket 3.7 17:39:40 10° SE 17:44:10 35° ENE 17:48:42 10° N
Cosmos 1697 Rocket 3.9 17:39:48 10° N 17:44:24 25° ENE 17:48:24 12° ESE
DEBRIS 3.2 17:42:20 10° WSW 17:44:26 43° NNW 17:47:53 10° NE
NOSS 5 (C) 4.5 17:41:09 10° NW 17:44:28 75° WSW 17:47:54 10° SSE
Okean O Rocket 3.6 17:43:17 10° E 17:45:07 13° ENE 17:46:56 10° NE
Cosmos 1867 4.0 17:40:07 10° SW 17:45:30 69° WNW 17:50:57 10° NNE
Cosmos 1954 Rocket 4.3 17:41:06 10° N 17:46:08 50° ENE 17:50:49 11° SE
Cosmos 2360 4.3 17:41:04 10° NNW 17:46:47 70° ENE 17:52:28 10° SSE
Cosmos 407 Rocket 4.4 17:44:04 10° NNW 17:48:58 49° WSW 17:53:52 10° S
Cosmos 332 Rocket 4.4 17:49:53 10° N 17:54:21 39° ENE 17:57:40 16° SE
Meteor 1-31 Rocket 2.4 17:52:49 10° SSE 17:56:14 70° ENE 17:59:43 10° N
Cosmos 2173 Rocket 4.3 17:51:02 10° SSE 17:56:43 43° E 18:02:29 10° NNE
Okean-O 4.3 17:55:48 13° E 17:57:42 17° ENE 18:00:31 10° NNE
Helios 1A Rocket 2.1 17:57:01 10° NNE 18:00:09 68° ESE 18:03:16 10° S
Cosmos 676 Rocket 4.3 17:56:29 10° N 18:01:33 50° ENE 18:05:17 17° SE
Aureole 1 4.3 18:03:03 10° S 18:06:09 71° ESE 18:09:54 10° NNE
Cosmos 1455 Rocket 4.3 18:06:04 20° ESE 18:07:23 23° E 18:10:51 10° NE
BREEZE-M DEB (TANK) 3.2 18:08:27 10° NW 18:10:53 47° NE 18:13:34 20° ESE
Cosmos 1980 Rocket 3.8 18:08:17 10° N 18:12:20 20° NE 18:15:03 14° E
Okean 1 Rocket 3.1 18:08:59 10° S 18:13:12 57° E 18:17:31 10° NNE
SL-08 R/B 3.4 18:11:35 10° NNE 18:16:20 57° E 18:20:59 10° S
Meteor 2-3 Rocket 3.9 18:12:35 10° N 18:18:06 54° E 18:21:40 22° SSE
ARIANE 6 FM1 Upper Stage 3.4 18:15:43 10° NW 18:19:31 45° WSW 18:22:03 19° S
CZ-4 R/B 1.8 18:18:11 12° S 18:21:26 53° W 18:24:59 10° NNW
CZ-4B DEB 4.3 18:16:54 12° SSE 18:22:01 83° WSW 18:27:35 10° NNW
GEOS 3 Rocket 4.4 18:17:37 12° SSE 18:22:12 47° WSW 18:27:21 10° NW
Cosmos 1802 Rocket 4.2 18:17:58 15° SSE 18:22:55 49° E 18:28:48 10° NNE
ASTEX 1 3.7 18:18:17 10° S 18:23:12 68° W 18:28:08 10° NNW
SPOT 5 4.1 18:19:44 10° SSW 18:23:38 33° W 18:27:34 10° NNW
Longmarch 3A Rocket 3.3 18:17:09 10° WSW 18:23:58 25° SSW 18:25:05 22° SSE
CZ-4B R/B 3.2 18:20:09 18° SSE 18:24:21 73° ENE 18:30:00 10° N
Cosmos 1782 4.2 18:25:15 19° ENE 18:25:15 19° ENE 18:27:06 10° NE
Cosmos 1833 Rocket 3.7 18:20:10 10° SW 18:25:34 49° WNW 18:30:59 10° N
Cosmos 1110 Rocket 3.9 18:22:07 10° SSW 18:27:23 86° ESE 18:32:42 10° NNE
USA 306 4.0 18:24:18 10° SSW 18:25:43 19° S 18:25:43 19° S
CBERS 1 LM4 rocket 4.4 18:27:30 21° SSE 18:30:49 88° WSW 18:35:51 10° NNW
Terra 1.7 18:28:44 21° SSE 18:31:52 86° W 18:36:34 10° NNW
Sich 1 Rocket 3.5 18:32:07 15° S 18:35:44 89° WNW 18:40:06 10° N
MetOp-B 4.2 18:35:54 20° S 18:39:39 78° WSW 18:45:01 10° NNW
USA 229 DEB 4.1 18:34:05 10° NNW 18:41:52 78° ENE 18:46:40 29° SE
USA 229 4.1 18:34:08 10° NNW 18:41:55 77° ENE 18:46:42 29° SE
Cosmos 1459 Rocket 4.0 18:37:56 10° S 18:44:13 81° W 18:50:26 10° N
Meteor 1-27 4.2 18:41:52 26° SSE 18:45:01 61° E 18:50:34 10° NNE
IUS-17 SRM-1 4.4 18:33:12 10° W 18:46:21 37° SSW 18:47:44 31° SSE
SJ 16-02 3.9 18:44:26 10° WNW 18:46:58 16° W 18:49:30 10° SW
YAOGAN 11 4.0 18:43:02 10° NNE 18:47:27 80° ESE 18:49:39 30° S
Cosmos 2100 Rocket 4.3 18:41:24 10° SSW 18:47:34 68° W 18:53:49 10° N
Cosmos 909 Rocket 4.3 18:43:32 15° S 18:48:45 45° ESE 18:54:41 10° NE
Cosmos 44 Rocket 3.6 18:44:33 10° SW 18:49:32 69° WNW 18:54:40 10° NNE
Ariane Rocket 4.1 18:52:17 26° E 18:52:52 27° ENE 18:57:02 10° NNE
Cosmos 1864 Rocket 4.5 18:47:29 15° S 18:52:56 89° E 18:59:20 10° N
BREEZE-M DEB (TANK) 4.5 18:50:25 10° W 18:54:24 23° NW 18:56:32 10° NNE
ADEOS 3.9 18:51:50 25° S 18:54:51 63° WSW 19:00:01 10° NNW
ISS -2.3 18:54:20 10° WSW 18:57:29 38° NW 19:00:38 10° NE
Cosmos 1743 3.7 18:54:44 10° N 18:56:23 27° NNE 18:56:23 27° NNE
Spot 2 Rocket 3.4 18:56:55 43° SSE 18:58:38 88° ENE 19:03:40 10° NNW
MOS 1-B 4.3 18:56:44 38° SSE 18:59:03 79° ENE 19:04:53 10° N
Cosmos 2082 Rocket 2.2 18:59:05 35° S 19:01:21 61° ESE 19:06:59 10° NNE
Cosmos 2233 Rocket 3.9 19:06:48 39° SSE 19:09:15 73° E 19:15:25 10° N
Cosmos 1607 3.8 19:04:01 10° SSW 19:10:08 89° WNW 19:16:23 10° NNE
SL-08 R/B 4.4 19:08:21 31° S 19:11:32 88° E 19:17:53 10° N
SL-4 R/B 2.0 19:07:43 10° NW 19:11:18 67° N 19:11:18 67° N
Milstar 3 3.6 19:11:59 10° WSW 19:18:45 45° S 19:20:57 39° SSE
Cosmos 2228 2.9 19:19:25 78° NNW 19:19:25 78° NNW 19:23:19 10° N
Cosmos 1725 Rocket 4.4 19:15:28 18° SSW 19:20:15 61° W 19:26:27 10° N
Okean O Rocket 2.0 19:20:14 48° SW 19:20:48 52° W 19:25:01 10° NNW
CZ-4C R/B 3.6 19:17:23 10° WSW 19:20:52 27° NW 19:25:04 10° NNE
DELTA 2 R/B (1) 3.4 19:15:39 10° WSW 19:21:13 81° SSE 19:22:25 56° E
Cosmos 292 Rocket 4.5 19:17:49 10° NNW 19:22:22 46° WSW 19:23:17 40° SW
Tsikada Rocket 3.9 19:16:46 10° N 19:22:55 70° E 19:24:01 58° SE
COSMOS 2406 3.9 19:25:32 37° ENE 19:25:32 37° ENE 19:29:40 10° NE
Cosmos 1992 Rocket 4.1 19:26:00 56° ENE 19:26:00 56° ENE 19:30:31 10° NNE
USA 186 4.4 19:28:18 16° NW 19:28:18 16° NW 19:29:07 10° NW
Cosmos 1697 Rocket 3.6 19:23:13 10° NW 19:28:27 41° WSW 19:30:08 33° SW
ATLAS 3B R/B 2.9 19:23:49 10° NW 19:31:28 73° WSW 19:33:32 50° S
Cosmos 1741 Rocket 4.1 19:26:52 10° NNW 19:32:08 67° WSW 19:32:45 61° SW
SL-16 R/B 4.0 19:28:41 10° N 19:32:34 19° NE 19:33:08 18° ENE
Okean-O 3.6 19:33:08 37° WSW 19:33:37 38° W 19:37:44 10° NNW
CZ-4B R/B 3.4 19:39:16 73° NNE 19:39:16 73° NNE 19:43:37 10° NNW
USA 245 4.4 19:42:23 60° SSW 19:43:14 69° W 19:49:09 10° NNW
Cosmos 2333 Rocket 3.9 19:41:08 10° N 19:45:21 21° NE 19:45:39 21° ENE
Cosmos 2061 Rocket 4.2 19:44:57 45° SW 19:46:50 67° W 19:53:04 10° N
NOSS 3-3 (A) 3.8 19:47:13 46° WSW 19:48:36 65° NW 19:54:20 10° NNE
SPOT 3 Rocket 3.8 19:53:57 58° W 19:53:57 58° W 19:59:00 10° NNW
Cosmos 1980 Rocket 2.5 19:51:07 10° NNW 19:56:41 58° WSW 19:56:48 58° WSW
Cosmos 1464 Rocket 4.3 20:08:44 52° NE 20:08:44 52° NE 20:13:45 10° NNE
Cosmos 1513 Rocket 4.4 20:11:46 86° NW 20:11:46 86° NW 20:17:54 10° N
Chandra Rocket (1) 4.2 20:03:51 10° W 20:15:00 38° SW 20:15:00 38° SW
NOSS 3-3 (C) 4.4 20:15:33 42° W 20:16:34 48° NW 20:22:14 10° NNE
Cosmos 2360 Rocket 3.8 20:18:24 10° N 20:22:30 23° NE 20:22:30 23° NE
Ariane Rocket 4.4 20:32:21 30° W 20:32:21 30° W 20:36:03 10° NW
Cosmos 2219 Rocket 4.1 20:36:18 10° N 20:40:07 20° NE 20:40:07 20° NE
Cosmos 2034 Rocket 4.4 20:42:55 57° NNE 20:42:55 57° NNE 20:48:00 10° N
Cosmos 2322 Rocket 3.3 20:45:13 10° N 20:49:16 37° NNE 20:49:16 37° NNE
USA 234 3.5 20:48:04 10° NE 20:54:32 65° NW 20:55:31 57° W
SL-16 R/B 3.4 21:11:29 10° NNW 21:14:58 37° NW 21:14:58 37° NW
Cosmos 2333 Rocket 3.6 21:24:24 10° NNW 21:27:39 33° NW 21:27:39 33° NW
CZ-2C R/B 4.4 21:34:56 26° NE 21:34:56 26° NE 21:37:57 10° N
Cosmos 2297 Rocket 4.4 21:52:12 16° ENE 21:52:12 16° ENE 21:53:40 10° NE
BREEZE-M DEB (TANK) 4.4 21:38:41 10° SW 22:04:13 72° SE 22:10:23 10° ENE
Cosmos 2360 Rocket 3.9 22:01:41 10° NW 22:04:14 26° NW 22:04:14 26° NW
Cosmos 2219 Rocket 3.8 22:19:11 10° NNW 22:21:48 27° NW 22:21:48 27° NW
Cosmos 2322 Rocket 4.4 22:29:50 10° NW 22:31:03 15° WNW 22:31:03 15° WNW
ACS3 Solar Sail 2.4 22:39:34 10° NNE 22:44:07 50° NE 22:44:07 50° NE
COSMOS 2428 3.7 22:42:45 10° NNW 22:46:33 42° N 22:46:33 42° N
Cosmos 2237 Rocket 3.6 22:46:57 10° N 22:51:58 31° ENE 22:52:25 30° ENE
Cosmos 2227 Rocket 3.6 23:00:04 31° ENE 23:00:04 31° ENE 23:03:44 10° NE
SeaSat 1 4.4 23:03:53 22° NW 23:03:53 22° NW 23:05:35 10° NNW
Cosmos 1553 Rocket 4.3 23:16:37 59° ENE 23:16:37 59° ENE 23:22:33 10° NNE
Cosmos 2263 Rocket 3.5 23:20:21 31° E 23:20:21 31° E 23:24:30 10° NE
BREEZE-M DEB (TANK) 4.1 23:17:28 10° NW 23:22:27 54° NNE 23:29:35 10° ESE
ATLAS 5 CENTAUR R/B 3.1 23:26:35 80° E 23:26:35 80° E 23:40:17 10° NE
NOSS 0 Rocket 4.5 23:23:36 10° NNW 23:28:04 49° NW 23:28:04 49° NW
Cosmos 2297 Rocket 3.1 23:33:58 41° NW 23:33:58 41° NW 23:38:27 10° N
Cosmos 1655 Rocket 4.4 23:27:51 10° NNW 23:32:53 54° NW 23:32:53 54° NW
Nimbus 7 Rocket 4.5 23:28:52 10° NNE 23:34:29 77° NE 23:34:29 77° NE
MSX 4.0 23:31:37 10° NNE 23:36:56 70° ENE 23:36:56 70° ENE
SL-08 R/B 4.5 23:37:22 10° N 23:43:42 75° E 23:44:03 73° ESE
Lacrosse 4 Rocket 3.3 23:46:25 26° N 23:46:25 26° N 23:48:19 10° NNE
Atlas Centaur 2 4.3 23:52:21 22° SE 23:52:21 22° SE 23:57:07 10° ESE
ISS -0.7 23:50:53 16° NNE 23:51:15 16° NNE 23:53:24 10° ENE
